CZ-4B R/B (29507 NORAD) Tracking and Keplerian Element Data

This shows tracking and keplerian element data for the satellite.

Feedback or suggestion? Click here.




ElementValue
Catalog29507
NameCZ-4B R/B
Epoch Orbit94117
Epoch Day12.82511654
Epoch Year2024
RAAN49.8269
Inclination97.6646
Eccentricity0.0043623
Argument of Perigee89.694
Mean Anonmoly270.9285
Mean Motion15.05883105
Decay Rate4.932E-05
L11 29507U 06046C 24012.82511654 .00004932 00000+0 33659-3 0 9996
L22 29507 97.6646 49.8269 0043623 89.6940 270.9285 15.05883105941176



Live tracking and technical data element details for CZ-4B R/B (NORAD 29507). CZ-4B R/B can be tracked NOW for your location showing map with azimuth and elevation plus other details from your city location.







IsCatalogInMostPopularTable: catalog: 29507, numindb: 1080
Update: records affected: 1



GetName: 29507 CZ-4B R/B

Hit Count: updated at: Sat, 20 Apr 2024 22:33:13 GMT